Location: Andrychów
(49.8551°N, 19.3402°E)
Time: 22:22:28
(UTC+01:00)

ISS - Visible Passes

Search period start: 19 January 2018 00:00
Search period end: 29 January 2018 00:00
Orbit: 402 x 407 km, 51.6° (Epoch: 20 January)

Date Brightness Start Highest point End Pass type
(mag) Time Alt. Az. Time Alt. Az. Time Alt. Az.
25 Jan -1.3 18:13:03 10° SSE 18:13:26 11° SSE 18:13:26 11° SSE visible
26 Jan -1.5 18:55:05 10° SW 18:56:11 18° SSW 18:56:11 18° SSW visible
27 Jan -2.4 18:03:12 10° SSW 18:05:52 23° SE 18:06:11 23° SE visible
27 Jan -0.4 19:38:46 10° WSW 19:38:51 11° WSW 19:38:51 11° WSW visible
28 Jan -1.6 17:11:46 10° S 17:13:40 15° SE 17:15:35 10° ESE visible
28 Jan -2.8 18:46:25 10° WSW 18:48:46 41° SW 18:48:46 41° SW visible
